Weather History for KTEB - October, 2012

Change the Weather History Date:

Tuesday, October 9, 2012

  Actual Average Record
Temperature  
Mean Temperature 54 °F -  
Max Temperature 59 °F 66 °F 87 °F (2011)
Min Temperature 50 °F 46 °F 30 °F (2001)
Degree Days  
Heating Degree Days 10    
Growing Degree Days 4 (Base 50)    
Moisture  
Dew Point 48 °F    
Average Humidity 77    
Maximum Humidity 86    
Minimum Humidity 72    
Precipitation  
Precipitation 0.01 in - - ()
Sea Level Pressure  
Sea Level Pressure 30.16 in    
Wind  
Wind Speed 4 mph (NNE)    
Max Wind Speed 8 mph    
Max Gust Speed -    
Visibility 10 miles    
Events Rain    
Averages and records for this station are not official NWS values.
T = Trace of Precipitation, MM = Missing Value Source: NWS Daily Summary

Daily Weather History Graph

Daily Weather History Graph

Search for Another Location

Airport or City:

Trip Planner

Search our weather history database for the weather conditions in past years. The results will help you decide how hot, cold, wet, or windy it might be!

Date:

Astronomy

Oct. 09, 2012 Rise Set
Actual Time 7:01 AM EDT 6:24 PM EDT
Civil Twilight 6:34 AM EDT 6:51 PM EDT
Nautical Twilight 6:02 AM EDT 7:23 PM EDT
Astronomical Twilight 5:30 AM EDT 7:55 PM EDT
Moon 12:33 AM EDT (10/9) 2:52 PM EDT (10/9)
Length of Visible Light 12h 17m
Length of Day
11h 22m
Last Quarter, 37% of the Moon is Illuminated
Oct 9
Last Quarter
Oct 15
New
Oct 21
First Quarter
Oct 29
Full
Nov 6
Last Quarter

Hourly Weather History & Observations

Time (EDT) Temp. Dew Point Humidity Pressure Visibility Wind Dir Wind Speed Gust Speed Precip Events Conditions
12:51 AM 50.0 °F 46.0 °F 86% 30.24 in 10.0 mi Calm Calm - N/A   Overcast
1:51 AM 50.0 °F 46.0 °F 86% 30.22 in 10.0 mi Calm Calm - N/A   Mostly Cloudy
2:51 AM 50.0 °F 46.0 °F 86% 30.21 in 10.0 mi North 3.5 mph - N/A   Overcast
3:51 AM 50.0 °F 44.6 °F 82% 30.21 in 10.0 mi North 4.6 mph - N/A Rain Light Rain
4:51 AM 51.1 °F 45.0 °F 80% 30.21 in 10.0 mi North 4.6 mph - 0.00 in   Overcast
5:51 AM 51.1 °F 45.0 °F 80% 30.20 in 10.0 mi North 6.9 mph - N/A   Overcast
6:23 AM 51.8 °F 44.6 °F 76% 30.20 in 10.0 mi North 5.8 mph - N/A   Overcast
6:51 AM 51.1 °F 45.0 °F 80% 30.19 in 10.0 mi North 4.6 mph - N/A   Overcast
7:06 AM 51.8 °F 44.6 °F 76% 30.19 in 10.0 mi North 5.8 mph - 0.00 in   Light Drizzle
7:32 AM 51.8 °F 44.6 °F 76% 30.20 in 10.0 mi North 3.5 mph - 0.00 in   Overcast
7:51 AM 51.8 °F 44.6 °F 76% 30.19 in 10.0 mi North 5.8 mph - N/A Rain Light Rain
8:51 AM 52.0 °F 46.9 °F 83% 30.20 in 10.0 mi NNE 4.6 mph - 0.01 in   Overcast
9:51 AM 53.6 °F 46.4 °F 77% 30.19 in 10.0 mi NNE 6.9 mph - N/A   Overcast
10:51 AM 55.9 °F 48.0 °F 75% 30.19 in 10.0 mi North 5.8 mph - N/A   Overcast
11:00 AM 55.4 °F 48.2 °F 77% 30.19 in 10.0 mi North 5.8 mph - N/A   Overcast
11:51 AM 55.9 °F 48.0 °F 75% 30.18 in 10.0 mi North 6.9 mph - N/A   Overcast
12:51 PM 57.0 °F 48.9 °F 74% 30.16 in 10.0 mi North 5.8 mph - N/A   Overcast
1:51 PM 59.0 °F 50.0 °F 72% 30.14 in 10.0 mi East 8.1 mph - N/A   Overcast
2:51 PM 59.0 °F 50.0 °F 72% 30.13 in 6.0 mi ENE 6.9 mph - N/A   Haze
3:51 PM 59.0 °F 50.0 °F 72% 30.12 in 10.0 mi NE 6.9 mph - N/A   Overcast
4:51 PM 59.0 °F 50.0 °F 72% 30.12 in 10.0 mi Calm Calm - N/A   Overcast
5:51 PM 57.9 °F 50.0 °F 75% 30.12 in 9.0 mi NNE 4.6 mph - N/A   Overcast
6:51 PM 57.9 °F 50.0 °F 75% 30.11 in 10.0 mi NNE 4.6 mph - N/A   Overcast
7:51 PM 57.9 °F 50.0 °F 75% 30.11 in 10.0 mi Calm Calm - N/A   Overcast
8:51 PM 57.0 °F 50.0 °F 77% 30.10 in 10.0 mi NE 3.5 mph - N/A   Overcast
9:51 PM 57.0 °F 50.0 °F 77% 30.10 in 10.0 mi ENE 3.5 mph - N/A   Overcast
10:51 PM 57.0 °F 50.0 °F 77% 30.09 in 10.0 mi NE 4.6 mph - N/A   Overcast
11:51 PM 57.0 °F 50.0 °F 77% 30.08 in 10.0 mi NE 4.6 mph - N/A   Overcast